www.pogodaiklimat.ru

Погода и климат >> Архив погоды >> Буркина-Фасо >> Дори


ПОГОДА в Дори

  • Прогноз погоды в Дори
  • Монитор погоды в Дори

АРХИВ ПОГОДЫ в Дори

Время (UTC), дата Ветер
(напр.,м/с)
 
Видим.   Явления Облачность Т
(С)
Тd
(С)
f
(%)
Тe
(С)
Тes
(С)
Комфортность P
(гПа)
Po
(гПа)
Тmin
(С)
Tmax
(С)
R
(мм)
R24
(мм)
S
(см)
00 15.09 штиль 0 10 км 9/0
[Ci sp]
+27.8 +21.3 68 +35 +35 очень
душно
1009.5 978.9
03 15.09 штиль 0 10 км 9/0
[Ci sp]
+27.4 +22.5 75 +36 +36 очень
душно
1008.7 978.3
06 15.09 З 1 10 км 9/0
[Ci sp]
+25.6 +21.3 77 +32 +32 очень
душно
1010.7 979.6 +25.4
09 15.09 З 1 10 км 9/0
[Ci sp]
+29.5 +21.5 62 +37 +48 очень
душно
1011.5 980.6
12 15.09 ЮЗ 2 10 км 9/0
[Ci sp]
+34.2 +21.5 48 +42 +59 опасность
перегрева
1010.6 979.9
15 15.09 ЮЗ 1 10 км 9/0
[Ci sp]
+32.5 +22.6 56 +42 +52 опасность
перегрева
1009.4 978.7
18 15.09 З 1 10 км 9/0
[Ci sp]
+29.7 +21.9 63 +38 +38 очень
душно
1009.6 978.7 +35.1
00 16.09 штиль 0 10 км 9/0
[Ci sp]
+27.4 +21.2 69 +35 +35 очень
душно
1010.4 979.7
03 16.09 штиль 0 10 км 9/0
[Ci sp]
+26.7 +20.9 71 +34 +34 очень
душно
1008.8 978.0
06 16.09 ЮЗ 1 10 км 9/0
[Ac trans Ci sp]
+26.0 +22.5 81 +34 +34 очень
душно
1011.0 980.0 +25.7
09 16.09 ЮЗ 2 10 км 9/0
[Ac trans Ci sp]
+28.6 +22.4 69 +37 +46 очень
душно
1011.5 980.6
12 16.09 штиль 0 10 км 9/0
[Ac trans Ci sp]
+33.4 +21.2 49 +41 +58 опасность
перегрева
1010.2 979.5
15 16.09 Ю 1 10 км 9/0
[Ac trans Ci sp]
+33.1 +21.2 50 +41 +47 опасность
перегрева
1008.7 978.0
18 16.09 ЮВ 1 10 км 9/0 900 м
[Ac trans Ci sp]
+31.5 +21.3 55 +39 +39 очень
душно
1008.3 977.5 +34.6
00 17.09 штиль 0 10 км 9/0
[Ac trans Ci sp]
+28.7 +22.3 68 +37 +37 очень
душно
1009.8 979.2
03 17.09 штиль 0 10 км 9/0
[Ac trans Ci sp]
+27.6 +23.1 77 +37 +37 очень
душно
1008.7 978.1
06 17.09 штиль 0 10 км 9/1 1200 м
[Cb cap Ac As Ci sp]
+27.0 +23.4 81 +37 +37 очень
душно
1010.4 979.6 +27.0
09 17.09 Ю 1 10 км 9/1 600 м
[Sc Ac trans Ci sp]
+29.1 +22.6 68 +38 +44 очень
душно
1011.9 981.0
12 17.09 штиль 0 10 км 9/1 600 м
[Sc Ac trans Ci sp]
+33.5 +22.0 51 +42 +56 опасность
перегрева
1009.9 979.2
15 17.09 Ю 1 10 км 9/3 600 м
[Cu Sc Ci sp]
+35.0 +21.4 45 +43 +50 опасность
перегрева
1008.2 977.7
18 17.09 штиль 0 10 км 9/1 600 м
[Sc Ci sp]
+34.0 +20.2 44 +40 +40 очень
душно
1007.6 977.0 +36.0
00 18.09 штиль 0 10 км 9/0
[Ac trans Ci sp]
+29.5 +21.5 62 +37 +37 очень
душно
1010.2 979.6
03 18.09 штиль 0 10 км 9/0
[Ac trans Ci sp]
+28.1 +23.7 77 +39 +39 очень
душно
1009.4 978.8
06 18.09 штиль 0 10 км 9/0
[Ac trans Ci sp]
+27.5 +23.5 79 +37 +37 очень
душно
1009.9 979.3 +27.5
09 18.09 штиль 0 10 км 9/0
[Ac trans Ci sp]
+29.1 +22.6 68 +38 +45 очень
душно
1011.8 981.1
12 18.09 ЮЗ 2 10 км 9/0
[Ac trans Ci sp]
+34.5 +22.4 49 +43 +58 опасность
перегрева
1010.8 980.2
15 18.09 ЮЗ 2 10 км 9/0
[Ac trans Ci sp]
+35.0 +20.4 43 +42 +49 опасность
перегрева
1008.7 978.2
18 18.09 штиль 0 10 км 9/0
[Ci sp]
+33.8 +23.3 54 +44 +44 опасность
перегрева
1008.6 978.0 +36.4
00 19.09 штиль 0 10 км 9/0
[Ci sp]
+26.8 +21.2 71 +34 +34 очень
душно
1010.5 979.8
03 19.09 штиль 0 10 км 9/0
[Ci sp]
+27.0 +22.0 74 +35 +35 очень
душно
1009.4 978.8
06 19.09 штиль 0 10 км 9/0
[Ac trans Ci sp]
+26.3 +22.7 81 +35 +35 очень
душно
1011.3 980.5 +26.1
09 19.09 ЮЗ 1 10 км 9/0
[Ac trans Ci sp]
+29.4 +22.0 64 +38 +47 очень
душно
1012.8 981.8
12 19.09 штиль 0 10 км 9/0
[Ci sp]
+34.1 +23.2 53 +44 +68 опасность
перегрева
1011.1 980.4
15 19.09 штиль 0 10 км 9/0
[Ci sp]
+34.7 +22.4 49 +44 +55 опасность
перегрева
1009.3 978.6
18 19.09 штиль 0 10 км 9/0
[Ci sp]
+32.6 +23.6 59 +44 +44 опасность
перегрева
1008.8 978.1 +35.1
00 20.09 ЮЗ 1 10 км 9/0
[Ac trans Ci sp]
+26.9 +21.3 71 +34 +34 очень
душно
1012.5 981.7
03 20.09 Ю 2 10 км 9/0
[Ci sp]
+26.3 +22.2 78 +34 +34 очень
душно
1012.2 981.5
06 20.09 Ю 3 10 км 9/0
[Ci sp]
+25.6 +19.4 69 +31 +31 очень
душно
1013.6 982.7 +25.4
09 20.09 Ю 2 10 км 9/0
[Ci sp]
+27.7 +20.1 63 +34 +42 очень
душно
1013.3 982.3
12 20.09 штиль 0 10 км 9/0
[Ac trans Ci sp]
+31.8 +19.4 48 +38 +50 очень
душно
1011.3 980.5
15 20.09 штиль 0 10 км 9/0
[Ac trans Ci sp]
+35.0 +19.5 40 +40 +48 очень
душно
1009.3 978.7
18 20.09 штиль 0 10 км 9/0
[Ac trans Ci sp]
+33.0 +23.1 56 +43 +43 опасность
перегрева
1010.2 979.4 +36.1
00 21.09 штиль 0 10 км 9/0
[Ac trans Ci sp]
+28.7 +22.2 68 +37 +37 очень
душно
1011.0 980.3
03 21.09 штиль 0 10 км 9/0
[Ac trans Ci sp]
+28.2 +21.3 66 +36 +36 очень
душно
1009.5 979.0
06 21.09 штиль 0 10 км 9/0
[Ac trans Ci sp]
+27.6 +22.1 72 +36 +36 очень
душно
1010.9 980.2 +27.6
09 21.09 ЮЗ 1 10 км 9/0
[Ac trans Ci sp]
+32.4 +21.7 53 +41 +48 опасность
перегрева
1012.4 981.7
12 21.09 З 1 10 км 9/0
[Ac trans Ci sp]
+35.6 +21.1 43 +43 +59 опасность
перегрева
1011.0 980.5
15 21.09 штиль 0 10 км 9/1 600 м
[Sc Ac trans Ci sp]
+38.5 +19.0 32 +43 +50 опасность
перегрева
1008.6 978.2
18 21.09 10 км 9/1 600 м
[Sc Ac trans Ci sp]
+36.1 +20.9 41 1008.3 977.8 +39.3
21 21.09 штиль 0 10 км 9/0
[Ci sp]
+32.5 +22.5 56 +42 +42 опасность
перегрева
1009.8 979.4

 

Местоположение метеостанции Дори (Буркина-Фасо): широта 14.03 долгота -0.03 высота над уровнем моря 277 м.

В архиве по умолчанию представлена погода в Дори за последнюю неделю. Архивные данные за месяц целиком и за предыдущие месяцы, начиная с января 2011 года, Вы можете получить, выбрав интересующий диапазон дат из раскрывающегося списка и нажав кнопку "Ввод!".


*Определитесь, кто Вы:
робот инопланетянин человек

Внимание! Время в таблицах - всемирное. Для получения местного времени необходимо прибавить поправку, которая равна 0 ч.

Смотрите также архив погоды в соседних городах и на ближайших метеорологических станциях:

Погода в Тиллабери (Нигер) (161 км)
Погода в Фада-Нгурме (Буркина-Фасо) (227 км)
Погода в Ниамее (Нигер) (245 км)
Погода в Уагадугу (Буркина-Фасо) (247 км)
Погода в Вахигуе (Буркина-Фасо) (263 км)
Погода в По (Буркина-Фасо) (343 км)
Погода в Дапаоне (Того) (354 км)
Погода в Навронго (Гана) (367 км)
Погода в Досо (Нигер) (367 км)
Погода в Боромо (Буркина-Фасо) (404 км)

Пояснения к столбцам:

Ветер - указаны скорость ветра в м/с - средняя за 10 мин, порывы в срок и между сроками (в фигурных скобках) и направление, откуда дует ветер: С - северный, СВ - северо-восточный, В - восточный, ЮВ - юго-восточный, Ю - южный, ЮЗ - юго-западный, З - западный, СЗ - северо-западный.
Видимость - горизонтальная дальность видимости в метрах или километрах. При видимости от 1 до 10 км при отсутствии осадков обычно наблюдается дымка, при ухудшении видимости до 1 км и менее - туман. В сухую погоду видимость может ухудшаться дымом, пылью или мглою.
Явления - указаны атмосферные явления, наблюдавшиеся в срок или в последний час перед сроком; фигурными скобками обозначены явления, наблюдавшиеся между сроками (за 1-3 часа до срока); квадратными скобками обозначены град или гололедные отложения с указанием их диаметра в мм.
Облачность - указаны через наклонную черту общая и нижняя облачность в баллах и высота нижней границы облаков в метрах; квадратными скобками обозначены формы облаков: Ci - перистые, Cs - перисто-слоистые, Cc - перисто-кучевые, Ac - высококучевые, As - высокослоистые, Sc - слоисто-кучевые, Ns - слоисто-дождевые, Cu - кучевые, Cb - кучево-дождевые. Подробнее классификацию облаков см. в Атласе облаков (PDF).
T - Температура воздуха - температура, измеренная на высоте 2 м над землей.
Td - Температура точки росы - температура, при понижении до которой содержащийся в воздухе водяной пар достигнет насыщения.
f - Относительная влажность воздуха - влажноcть воздуха, измеренная на высоте 2 м над землей.
Te - Эффективная температура - температура, которую ощущает одетый по сезону человек в тени. Характеристика душности погоды. При расчете учитывается влияние влажности воздуха и скорости ветра на теплоощущения человека.
Tes - Эффективная температура на солнце - температура, которую ощущает человек, с поправкой на солнечный нагрев. Характеристика знойности погоды. Зависит от высоты солнца над горизонтом, облачности и скорости ветра. Ночью, в пасмурную погоду, а также при ветре 12 м/с и более поправка равна нулю.
P - Атмосферное давление - приведенное к уровню моря атмосферное давление.
Po - Атмосферное давление - измеренное на уровне метеостанции атмосферное давление.
Tmin - Минимальная температура - минимум температуры воздуха на высоте 2 м над землей.
Tmax - Максимальная температура - максимум температуры воздуха на высоте 2 м над землей.
R - Количество осадков - Количество выпавших осадков за период времени, мм. При наведении курсора мыши на число - период времени, за который выпало указанное количество осадков.
R24 - Количество осадков - Количество выпавших осадков за 24 часа, мм.
S - Снежный покров - Высота снежного покрова, см. При наведении курсора мыши на число - состояние снежного покрова и степень покрытия местности в баллах.